FW7859 Weather Reports


time (UTC)temp
C
wind
direction
speed
KPH
gust
KPH
rain 1hr
cm
rain 24hr
cm
rain mn
cm
humidity
%
barometer
mb
20260507142004 17 342 8.0 16.1 0.00 1.32 1.32 82 1011.9
20260507141503 17 1 8.0 16.1 0.03 1.32 1.32 82 1011.9
20260507141003 17 9 9.7 17.7 0.03 1.32 1.32 82 1011.8
20260507140504 17 14 8.0 17.7 0.03 1.32 1.32 82 1011.9
20260507140003 17 19 6.4 17.7 0.03 1.32 1.32 83 1011.8
20260507135713 17 48 6.4 17.7 0.03 1.32 1.32 83 1011.7
20260507135003 17 86 8.0 24.1 0.03 1.32 1.32 83 1011.9
20260507134503 17 72 8.0 24.1 0.03 1.32 1.32 83 1011.8
20260507134003 17 85 6.4 17.7 0.03 1.32 1.32 83 1011.8
20260507133715 17 63 6.4 17.7 0.03 1.32 1.32 84 1012.0
20260507133003 16 79 6.4 16.1 0.03 1.32 1.32 85 1011.9
20260507132503 16 82 4.8 12.9 0.03 1.32 1.32 86 1011.7
20260507132003 16 85 6.4 14.5 0.03 1.32 1.32 85 1011.7
20260507131503 16 106 6.4 14.5 0.00 1.30 1.30 86 1011.9
20260507131005 17 100 6.4 17.7 0.00 1.30 1.30 85 1012.1
20260507130503 16 92 6.4 17.7 0.00 1.30 1.30 84 1012.3
20260507130004 16 65 4.8 17.7 0.00 1.30 1.30 83 1012.2
20260507125503 16 74 8.0 24.1 0.00 1.30 1.30 82 1012.3
20260507125003 16 78 8.0 27.4 0.00 1.30 1.30 81 1012.4
20260507124715 17 64 9.7 27.4 0.00 1.30 1.30 80 1012.3
20260507124003 17 59 8.0 27.4 0.00 1.30 1.30 79 1012.2
20260507123503 17 60 8.0 22.5 0.00 1.30 1.30 78 1012.3
20260507123004 17 59 9.7 24.1 0.00 1.30 1.30 78 1012.2
20260507122717 17 53 9.7 27.4 0.00 1.30 1.30 79 1012.2
20260507122004 17 42 11.3 35.4 0.00 1.30 1.30 84 1012.7
20260507121503 17 41 11.3 33.8 0.00 1.30 1.30 83 1012.2
20260507121003 17 32 12.9 35.4 0.00 1.30 1.30 82 1012.4
20260507120504 17 56 11.3 35.4 0.00 1.30 1.30 80 1012.7
20260507120005 18 59 9.7 30.6 0.00 1.30 1.30 77 1012.8
20260507115503 18 43 8.0 22.5 0.00 1.30 1.30 72 1012.5
20260507115003 18 53 6.4 16.1 0.00 1.30 1.30 71 1012.3
20260507114503 18 70 4.8 16.1 0.00 1.30 1.30 73 1012.5
20260507114213 17 58 4.8 14.5 0.00 1.30 1.30 74 1012.5
20260507113503 17 20 4.8 14.5 0.00 1.30 1.30 78 1012.5
20260507113214 17 347 6.4 16.1 0.00 1.30 1.30 79 1012.7
20260507112503 16 9 4.8 16.1 0.03 1.30 1.30 84 1012.6
20260507112003 16 43 3.2 12.9 0.03 1.30 1.30 86 1012.6
20260507111504 16 339 3.2 12.9 0.03 1.30 1.30 88 1012.8
20260507111004 16 339 4.8 16.1 0.03 1.30 1.30 90 1012.9
20260507110714 15 342 6.4 16.1 0.03 1.30 1.30 90 1013.0
20260507110003 15 323 3.2 14.5 0.08 1.30 1.30 90 1013.2
20260507105503 14 26 3.2 12.9 0.13 1.30 1.30 90 1013.3
20260507105003 14 24 4.8 12.9 0.23 1.30 1.30 89 1013.4
20260507104504 14 6 9.7 27.4 0.30 1.30 1.30 89 1013.4
20260507104003 14 6 14.5 27.4 0.33 1.30 1.30 89 1013.4
20260507103503 15 16 12.9 27.4 0.36 1.30 1.30 89 1013.2
20260507103215 15 24 11.3 27.4 0.41 1.30 1.30 89 1012.9
20260507102504 15 22 16.1 35.4 0.51 1.27 1.27 89 1013.0
20260507102007 15 15 12.9 35.4 0.64 1.27 1.27 88 1013.2
20260507101714 15 13 12.9 35.4 0.66 1.27 1.27 88 1013.3
20260507101217 13 358 11.3 25.7 0.69 1.27 1.27 88 1013.1
20260507100503 13 17 12.9 29.0 0.86 1.27 1.27 89 1013.2
20260507100003 14 26 12.9 29.0 1.07 1.22 1.22 88 1013.3
20260507095503 13 19 12.9 25.7 1.17 1.17 1.17 88 1013.2
20260507095005 13 21 11.3 25.7 1.07 1.07 1.07 88 1013.3
20260507094717 13 360 9.7 22.5 1.02 1.02 1.02 88 1013.1
20260507094215 13 322 6.4 22.5 0.97 0.97 0.97 89 1013.1
20260507093503 13 313 4.8 11.3 0.94 0.94 0.94 89 1013.3
20260507093216 13 344 6.4 17.7 0.89 0.89 0.91 89 1013.3
20260507092503 13 15 9.7 22.5 0.76 0.76 0.76 88 1013.2
20260507092003 13 27 11.3 24.1 0.64 0.64 0.64 88 1013.0
20260507091503 13 11 14.5 27.4 0.58 0.58 0.58 88 1012.8
20260507091003 13 357 19.3 35.4 0.56 0.56 0.56 89 1013.2
20260507090715 14 7 17.7 38.6 0.48 0.48 0.51 88 1013.0
20260507090004 16 22 11.3 38.6 0.15 0.15 0.15 85 1013.0
20260507085504 16 358 11.3 17.7 0.00 0.00 0.00 83 1012.8
20260507085003 16 24 9.7 29.0 0.00 0.00 0.00 82 1013.0
20260507084503 17 360 11.3 30.6 0.00 0.00 0.00 81 1012.7
20260507084003 18 337 9.7 30.6 0.00 0.00 0.00 82 1012.8
20260507083503 18 348 9.7 17.7 0.00 0.00 0.00 83 1012.8
20260507083003 18 3 9.7 17.7 0.00 0.00 0.00 83 1012.4
20260507082503 18 348 8.0 17.7 0.00 0.00 0.00 83 1012.4
20260507082003 18 324 9.7 16.1 0.00 0.00 0.00 83 1012.5
20260507081503 18 338 9.7 16.1 0.00 0.00 0.00 83 1012.6
20260507081003 18 341 9.7 16.1 0.00 0.00 0.00 83 1012.3
20260507080503 18 344 11.3 17.7 0.00 0.00 0.00 83 1012.3
20260507080004 18 352 9.7 17.7 0.00 0.00 0.00 84 1012.3
20260507075503 18 5 4.8 14.5 0.00 0.00 0.00 83 1012.6
20260507075003 18 343 4.8 12.9 0.00 0.00 0.00 83 1012.7
20260507074503 18 336 6.4 14.5 0.00 0.00 0.00 83 1012.7
20260507074004 18 358 8.0 14.5 0.00 0.00 0.00 83 1012.5
20260507073504 18 27 4.8 12.9 0.00 0.00 0.00 83 1012.6
20260507073217 18 28 4.8 12.9 0.00 0.00 0.00 84 1012.3
20260507072504 18 21 4.8 12.9 0.00 0.00 0.00 84 1012.3
20260507072007 18 46 3.2 16.1 0.00 0.00 0.00 84 1012.5
20260507071716 17 45 3.2 16.1 0.00 0.00 0.00 85 1012.4
20260507071003 17 343 6.4 12.9 0.00 0.00 0.00 84 1012.5
20260507070503 17 329 6.4 12.9 0.00 0.00 0.00 85 1012.6
20260507070006 17 310 4.8 11.3 0.00 0.00 0.00 84 1012.5
20260507065713 17 317 4.8 11.3 0.00 0.00 0.00 85 1012.4
20260507065004 17 318 6.4 14.5 0.00 0.00 0.00 85 1012.6
20260507064503 17 314 8.0 14.5 0.00 0.00 0.00 85 1012.1
20260507064003 17 323 6.4 14.5 0.00 0.00 0.00 85 1011.8
20260507063503 17 331 8.0 14.5 0.00 0.00 0.00 85 1011.9
20260507063003 17 333 8.0 14.5 0.00 0.00 0.00 86 1011.9
20260507062503 17 333 8.0 14.5 0.00 0.00 0.00 85 1011.9
20260507062213 17 331 8.0 14.5 0.00 0.00 0.00 85 1012.0
20260507061503 16 338 8.0 14.5 0.00 0.00 0.00 85 1011.7
20260507061003 16 346 6.4 14.5 0.00 0.00 0.00 85 1011.8
20260507060503 16 350 8.0 14.5 0.00 0.00 0.00 85 1011.6
20260507060003 16 19 4.8 12.9 0.00 0.00 0.00 85 1011.8
20260507055713 16 54 4.8 12.9 0.00 0.00 0.00 85 1011.6
20260507055216 16 84 3.2 11.3 0.00 0.00 0.00 85 1011.7
20260507054503 17 360 4.8 12.9 0.00 0.00 0.00 85 1011.7
20260507054217 17 342 6.4 12.9 0.00 0.00 0.00 85 1011.7
20260507053503 17 333 8.0 12.9 0.00 0.00 0.00 85 1011.8
20260507053213 17 333 6.4 14.5 0.00 0.00 0.00 85 1011.8
20260507052503 16 349 8.0 14.5 0.00 0.00 0.00 85 1011.9
20260507052003 16 348 8.0 16.1 0.00 0.00 0.00 85 1011.7
20260507051503 16 341 9.7 16.1 0.00 0.00 0.00 85 1011.7
20260507051003 16 337 8.0 16.1 0.00 0.00 0.00 84 1011.5
20260507050503 16 330 8.0 20.9 0.00 0.00 0.00 84 1011.6
20260507050003 16 332 9.7 20.9 0.00 0.00 0.00 84 1011.6
20260507045504 16 333 9.7 16.1 0.00 0.00 0.00 84 1011.4
20260507045003 16 324 8.0 17.7 0.00 0.00 0.00 84 1011.4
20260507044715 16 318 8.0 17.7 0.00 0.00 0.00 84 1011.4
20260507044004 16 313 6.4 16.1 0.00 0.00 0.00 84 1011.5
20260507043503 16 339 8.0 16.1 0.00 0.00 0.00 84 1011.5
20260507043003 16 344 9.7 16.1 0.00 0.00 0.00 84 1011.3
20260507042508 16 340 11.3 16.1 0.00 0.00 0.00 84 1011.4
20260507042004 16 332 8.0 16.1 0.00 0.00 0.00 84 1011.5
20260507041505 16 342 8.0 14.5 0.00 0.00 0.00 84 1011.7
20260507041003 16 351 8.0 14.5 0.00 0.00 0.00 84 1011.6
20260507040714 16 353 9.7 16.1 0.00 0.00 0.00 84 1011.6
20260507040217 16 355 9.7 16.1 0.00 0.00 0.00 84 1011.4
20260507035503 16 356 9.7 17.7 0.00 0.00 0.00 85 1011.5
20260507035004 16 360 8.0 16.1 0.00 0.00 0.00 85 1011.4
20260507034503 16 356 4.8 11.3 0.00 0.00 0.00 85 1011.5
20260507034003 16 342 3.2 11.3 0.00 0.00 0.00 86 1011.5
20260507033504 16 349 4.8 12.9 0.00 0.00 0.00 86 1011.6
20260507033003 16 350 6.4 12.9 0.00 0.00 0.00 86 1011.4
20260507032504 16 354 6.4 12.9 0.00 0.00 0.00 86 1011.4
20260507032215 16 357 6.4 12.9 0.00 0.00 0.00 87 1011.2
20260507031713 16 342 6.4 12.9 0.00 0.00 0.00 87 1011.4
20260507031003 16 322 4.8 12.9 0.00 0.00 0.00 87 1011.5
20260507030503 16 307 4.8 6.4 0.00 0.00 0.00 87 1011.5
20260507030003 16 306 4.8 6.4 0.00 0.00 0.00 87 1011.6
20260507025503 16 314 4.8 9.7 0.00 0.00 0.00 87 1011.5
20260507025213 16 323 4.8 11.3 0.00 0.00 0.00 87 1011.6
20260507024503 16 330 6.4 11.3 0.00 0.00 0.00 87 1011.6
20260507024003 16 342 4.8 11.3 0.00 0.00 0.00 87 1011.6
20260507023503 16 353 6.4 11.3 0.00 0.00 0.00 87 1011.4
20260507023004 16 349 6.4 11.3 0.00 0.00 0.00 87 1011.6
20260507022503 16 340 6.4 12.9 0.00 0.00 0.00 87 1011.6
20260507022003 16 320 4.8 12.9 0.00 0.00 0.00 86 1011.8
20260507021503 16 313 4.8 9.7 0.00 0.00 0.00 86 1011.7
20260507021003 16 328 4.8 11.3 0.00 0.00 0.00 86 1011.9
20260507020503 16 325 4.8 11.3 0.00 0.00 0.00 86 1012.0
20260507020003 16 340 4.8 9.7 0.00 0.00 0.00 86 1011.9
20260507015503 16 7 4.8 9.7 0.00 0.00 0.00 86 1012.0
20260507015214 16 15 3.2 6.4 0.00 0.00 0.00 86 1011.7
20260507014717 16 27 1.6 6.4 0.00 0.00 0.00 86 1011.9
20260507014215 16 13 1.6 6.4 0.00 0.00 0.00 86 1011.9
20260507013503 16 345 3.2 6.4 0.00 0.00 0.00 85 1012.2
20260507013003 17 352 3.2 9.7 0.00 0.00 0.00 85 1012.1
20260507012503 17 342 4.8 9.7 0.00 0.00 0.00 85 1012.3
20260507012003 17 339 4.8 9.7 0.00 0.00 0.00 85 1012.2
20260507011503 17 339 4.8 9.7 0.00 0.00 0.00 85 1012.3
20260507011003 17 329 4.8 9.7 0.00 0.00 0.00 85 1012.3
20260507010503 17 330 3.2 6.4 0.00 0.00 0.00 85 1012.3
20260507010004 17 13 1.6 6.4 0.00 0.00 0.00 84 1012.3
20260507005503 17 341 1.6 6.4 0.00 0.00 0.00 84 1012.4
20260507005003 17 307 3.2 6.4 0.00 0.00 0.00 84 1012.5
20260507004503 17 309 4.8 9.7 0.00 0.00 0.00 84 1012.3
20260507004003 17 309 4.8 9.7 0.00 0.00 0.00 84 1012.5
20260507003503 17 290 3.2 6.4 0.00 0.00 0.00 84 1012.3
20260507003216 17 293 3.2 9.7 0.00 0.00 0.00 84 1012.5
20260507002503 17 300 4.8 9.7 0.00 0.00 0.00 84 1012.2
20260507002003 17 305 4.8 9.7 0.00 0.00 0.00 84 1012.2
20260507001503 17 303 3.2 9.7 0.00 0.00 0.00 84 1012.1
20260507001003 17 260 1.6 4.8 0.00 0.00 0.00 84 1012.3
20260507000503 16 248 1.6 9.7 0.00 0.00 0.00 84 1012.2
20260507000003 16 249 3.2 9.7 0.00 0.00 0.00 84 1012.1
20260506235503 16 250 3.2 9.7 0.00 0.00 0.00 84 1012.2
20260506235003 16 252 1.6 6.4 0.00 0.00 0.00 84 1012.5
20260506234504 16 252 1.6 4.8 0.00 0.00 0.00 84 1012.4
20260506234003 16 256 3.2 6.4 0.00 0.00 0.00 84 1012.4
20260506233503 16 264 3.2 6.4 0.00 0.00 0.00 83 1012.5
20260506233003 16 259 3.2 6.4 0.00 0.00 0.00 83 1012.5
20260506232503 16 237 3.2 4.8 0.00 0.00 0.00 83 1012.6
20260506232213 16 239 3.2 6.4 0.00 0.00 0.00 83 1012.6
20260506231503 16 254 4.8 9.7 0.00 0.00 0.00 82 1012.7
20260506231004 16 254 4.8 9.7 0.00 0.00 0.00 82 1012.6
20260506230503 16 254 3.2 9.7 0.00 0.00 0.00 82 1012.9
20260506230003 16 249 1.6 4.8 0.00 0.00 0.00 82 1012.8
20260506225504 16 249 1.6 4.8 0.00 0.00 0.00 82 1012.6
20260506225003 16 252 4.8 9.7 0.00 0.00 0.00 82 1012.5
20260506224503 16 251 3.2 9.7 0.00 0.00 0.00 81 1012.9
20260506224003 17 247 1.6 4.8 0.00 0.00 0.00 81 1012.9
20260506223503 17 245 1.6 3.2 0.00 0.00 0.00 80 1012.7
20260506223003 17 249 1.6 3.2 0.00 0.00 0.00 80 1013.0
20260506222716 17 251 1.6 3.2 0.00 0.00 0.00 80 1012.9
20260506222003 17 276 3.2 4.8 0.00 0.00 0.00 80 1012.9
20260506221504 17 289 1.6 4.8 0.00 0.00 0.00 80 1012.6
20260506221003 17 275 1.6 3.2 0.00 0.00 0.00 80 1012.8
20260506220503 17 121 0.0 3.2 0.00 0.00 0.00 80 1012.7
20260506220006 17 93 1.6 4.8 0.00 0.00 0.00 80 1012.5
20260506215503 17 46 1.6 4.8 0.00 0.00 0.00 80 1012.5
20260506215003 17 360 1.6 4.8 0.00 0.00 0.00 80 1012.6
20260506214503 17 5 3.2 6.4 0.00 0.00 0.00 80 1013.0
20260506214003 17 29 3.2 9.7 0.00 0.00 0.00 80 1013.1
20260506213503 17 38 3.2 9.7 0.00 0.00 0.00 80 1013.0
20260506213213 17 34 3.2 9.7 0.00 0.00 0.00 79 1013.0
20260506212503 17 66 3.2 9.7 0.00 0.00 0.00 79 1013.0
20260506212214 17 94 1.6 6.4 0.00 0.00 0.00 79 1013.3
20260506211503 18 177 1.6 4.8 0.00 0.00 0.00 79 1013.3
20260506211003 18 164 1.6 4.8 0.00 0.00 0.00 79 1013.3
20260506210519 18 155 1.6 4.8 0.00 0.00 0.00 79 1013.3
20260506210004 18 144 3.2 4.8 0.00 0.00 0.00 78 1013.1
20260506205503 18 139 3.2 4.8 0.00 0.00 0.00 78 1013.1
20260506205217 18 139 1.6 4.8 0.00 0.00 0.00 78 1013.3
20260506204503 18 124 3.2 6.4 0.00 0.00 0.00 77 1012.9
20260506204003 18 134 3.2 6.4 0.00 0.00 0.00 77 1012.9
20260506203503 18 155 3.2 6.4 0.00 0.00 0.00 77 1013.2
20260506203214 18 155 3.2 6.4 0.00 0.00 0.00 77 1013.0
20260506202717 18 143 3.2 9.7 0.00 0.00 0.00 76 1012.7
20260506202003 18 125 4.8 9.7 0.00 0.00 0.00 76 1012.7
20260506201503 18 134 3.2 6.4 0.00 0.00 0.00 76 1012.8
20260506201003 18 129 1.6 6.4 0.00 0.00 0.00 75 1012.7
20260506200503 18 119 3.2 11.3 0.00 0.00 0.00 75 1012.7
20260506200003 18 127 4.8 11.3 0.00 0.00 0.00 75 1012.3
20260506195503 18 123 3.2 9.7 0.00 0.00 0.00 75 1012.6
20260506195213 18 101 3.2 9.7 0.00 0.00 0.00 75 1012.5
20260506194503 18 102 4.8 12.9 0.00 0.00 0.00 75 1012.5
20260506194003 18 105 6.4 12.9 0.00 0.00 0.00 75 1012.3
20260506193503 18 100 4.8 12.9 0.00 0.00 0.00 75 1012.2
20260506193003 18 106 4.8 12.9 0.00 0.00 0.00 75 1012.3
20260506192503 18 112 4.8 12.9 0.00 0.00 0.00 75 1012.2
20260506192003 18 104 4.8 11.3 0.00 0.00 0.00 74 1012.0
20260506191503 18 101 4.8 12.9 0.00 0.00 0.00 74 1012.1
20260506191003 18 103 6.4 16.1 0.00 0.00 0.00 74 1012.0
20260506190503 18 110 9.7 16.1 0.00 0.00 0.00 74 1011.8
20260506190004 18 113 8.0 16.1 0.00 0.00 0.00 75 1012.0
20260506185716 18 112 8.0 16.1 0.00 0.00 0.00 74 1011.8
20260506185003 18 118 6.4 16.1 0.00 0.00 0.00 73 1011.9
20260506184503 18 113 6.4 16.1 0.00 0.00 0.00 73 1011.8
20260506184214 18 110 8.0 16.1 0.00 0.00 0.00 74 1011.9
20260506183503 18 77 4.8 16.1 0.00 0.00 0.00 74 1011.8
20260506183003 18 52 4.8 17.7 0.00 0.00 0.00 74 1011.5
20260506182504 18 42 6.4 17.7 0.00 0.00 0.00 75 1011.5
20260506182216 18 37 6.4 16.1 0.00 0.00 0.00 75 1011.6
20260506181503 18 46 6.4 17.7 0.00 0.00 0.00 74 1011.4
20260506181217 18 69 6.4 17.7 0.00 0.00 0.00 74 1011.5
20260506180503 19 104 8.0 20.9 0.00 0.00 0.00 73 1011.6
20260506180004 18 89 8.0 22.5 0.00 0.00 0.00 74 1011.4
20260506175503 18 87 8.0 22.5 0.00 0.00 0.00 74 1011.5
20260506175003 19 90 9.7 24.1 0.00 0.00 0.00 73 1011.5
20260506174503 18 90 9.7 24.1 0.00 0.00 0.00 73 1011.5
20260506174003 19 91 9.7 24.1 0.00 0.00 0.00 72 1011.3
20260506173503 19 88 9.7 24.1 0.00 0.00 0.00 71 1011.7
20260506173003 19 92 11.3 25.7 0.00 0.00 0.00 70 1011.5
20260506172504 19 93 9.7 25.7 0.00 0.00 0.00 69 1011.6
20260506172003 19 89 8.0 25.7 0.00 0.00 0.00 69 1011.5
20260506171503 19 108 11.3 29.0 0.00 0.00 0.00 69 1011.4
20260506171003 19 113 14.5 29.0 0.00 0.00 0.00 67 1011.6
20260506170503 19 111 11.3 29.0 0.00 0.00 0.00 69 1011.5
20260506170003 19 101 9.7 25.7 0.00 0.00 0.00 69 1011.6
20260506165503 19 104 11.3 29.0 0.00 0.00 0.00 71 1011.5
20260506165004 19 109 14.5 30.6 0.00 0.00 0.00 70 1011.5
20260506164503 19 100 12.9 30.6 0.00 0.00 0.00 71 1011.5
20260506164003 19 95 9.7 29.0 0.00 0.00 0.00 68 1011.6
20260506163503 19 102 11.3 33.8 0.00 0.00 0.00 68 1011.6
20260506163003 19 105 14.5 33.8 0.00 0.00 0.00 69 1011.4
20260506162503 19 91 12.9 30.6 0.00 0.00 0.00 70 1011.7
20260506162003 19 81 11.3 30.6 0.00 0.00 0.00 69 1011.7
20260506161503 20 93 9.7 25.7 0.00 0.00 0.00 70 1011.5
20260506161003 20 90 8.0 22.5 0.00 0.00 0.00 70 1011.5
20260506160716 20 96 9.7 24.1 0.00 0.00 0.00 69 1011.8
20260506160003 20 113 14.5 29.0 0.00 0.00 0.00 69 1011.7
20260506155503 20 98 12.9 29.0 0.00 0.00 0.00 69 1011.6
20260506155003 20 94 11.3 29.0 0.00 0.00 0.00 69 1011.5
20260506154503 20 91 11.3 29.0 0.00 0.00 0.00 69 1011.6
20260506154004 20 87 12.9 29.0 0.00 0.00 0.00 69 1011.5
20260506153503 20 92 14.5 30.6 0.00 0.00 0.00 69 1011.9
20260506153217 20 87 12.9 30.6 0.00 0.00 0.00 69 1011.5
20260506152503 20 103 14.5 37.0 0.00 0.00 0.00 67 1011.7
20260506152004 20 94 16.1 37.0 0.00 0.00 0.00 67 1011.2
20260506151504 20 60 12.9 35.4 0.00 0.00 0.00 64 1011.4
20260506151003 20 57 12.9 35.4 0.00 0.00 0.00 65 1011.7
20260506150717 20 68 11.3 30.6 0.00 0.00 0.00 66 1011.4
20260506150003 20 80 11.3 30.6 0.00 0.00 0.00 62 1011.7
20260506145503 20 99 12.9 27.4 0.00 0.00 0.00 60 1011.5
20260506145004 20 115 14.5 30.6 0.00 0.00 0.00 59 1011.5
20260506144503 20 105 12.9 30.6 0.00 0.00 0.00 61 1011.2
20260506144003 21 107 12.9 29.0 0.00 0.00 0.00 60 1011.4
20260506143503 20 102 11.3 27.4 0.00 0.00 0.00 61 1011.4
20260506143213 20 89 9.7 27.4 0.00 0.00 0.00 59 1011.5
20260506142503 20 91 17.7 37.0 0.00 0.00 0.00 62 1011.4